TimePDT,TemperatureF,Dew PointF,Humidity,Sea Level PressureIn,VisibilityMPH,Wind Direction,Wind SpeedMPH,Gust SpeedMPH,PrecipitationIn,Events,Conditions,WindDirDegrees,DateUTC
12:00 AM,46.4,26.6,46,29.78,15.0,NE,10.4,-,N/A,,Overcast,40,2014-03-17 07:00:00
1:00 AM,44.6,26.6,49,29.78,15.0,North,10.4,-,N/A,,Overcast,10,2014-03-17 08:00:00
2:00 AM,44.6,26.6,49,29.78,15.0,NNE,9.2,-,N/A,,Overcast,20,2014-03-17 09:00:00
3:00 AM,46.4,24.8,43,29.80,15.0,North,13.8,-,N/A,,Overcast,360,2014-03-17 10:00:00
4:00 AM,44.6,28.4,53,29.81,15.0,NNW,13.8,26.5,N/A,,Overcast,340,2014-03-17 11:00:00
5:00 AM,45,25,33,29.85,15,NW,10.4,,,,Overcast,320,2014-03-17 12:00:00
5:00 AM,44.6,24.8,46,29.85,15.0,NNW,10.4,-,N/A,,Overcast,340,2014-03-17 12:00:00
6:00 AM,42.8,24.8,49,29.88,15.0,NNW,10.4,-,N/A,,Overcast,340,2014-03-17 13:00:00
7:00 AM,41.0,21.2,45,29.94,15.0,NNW,12.7,-,N/A,,Mostly Cloudy,340,2014-03-17 14:00:00
8:00 AM,42.8,21.2,42,29.97,15.0,NNW,8.1,-,N/A,,Mostly Cloudy,330,2014-03-17 15:00:00
9:00 AM,44.6,21.2,39,30.00,15.0,North,12.7,-,N/A,,Mostly Cloudy,350,2014-03-17 16:00:00
10:00 AM,46.4,21.2,37,30.02,15.0,North,13.8,-,N/A,,Mostly Cloudy,10,2014-03-17 17:00:00
11:00 AM,48,20,20,30.05,15,North,10.4,,,,Partly Cloudy,0,2014-03-17 18:00:00
11:00 AM,48.2,19.4,32,30.05,15.0,North,13.8,-,N/A,,Mostly Cloudy,10,2014-03-17 18:00:00
12:00 PM,51.8,19.4,28,30.06,15.0,North,16.1,21.9,N/A,,Mostly Cloudy,360,2014-03-17 19:00:00
1:00 PM,51.8,17.6,26,30.06,15.0,North,21.9,31.1,N/A,,Partly Cloudy,10,2014-03-17 20:00:00
2:00 PM,51.8,17.6,26,30.06,15.0,NNE,16.1,27.6,N/A,,Partly Cloudy,20,2014-03-17 21:00:00
3:00 PM,48.2,17.6,30,30.06,15.0,North,15.0,-,N/A,,Scattered Clouds,360,2014-03-17 22:00:00
4:00 PM,50.0,19.4,30,30.07,15.0,NNW,3.5,-,N/A,,Mostly Cloudy,330,2014-03-17 23:00:00
5:00 PM,50,20,19,30.09,15,WNW,11.5,,,,Mostly Cloudy,300,2014-03-18 00:00:00
5:00 PM,50.0,21.2,32,30.09,15.0,WNW,11.5,23.0,N/A,,Mostly Cloudy,300,2014-03-18 00:00:00
6:00 PM,46.4,17.6,32,30.12,15.0,West,19.6,25.3,N/A,,Scattered Clouds,280,2014-03-18 01:00:00
7:00 PM,44.6,15.8,31,30.16,15.0,NNW,10.4,-,N/A,,Mostly Cloudy,340,2014-03-18 02:00:00
8:00 PM,42.8,19.4,39,30.18,15.0,NE,11.5,18.4,N/A,,Mostly Cloudy,40,2014-03-18 03:00:00
9:00 PM,41.0,19.4,42,30.21,15.0,WNW,2.3,-,N/A,,Mostly Cloudy,290,2014-03-18 04:00:00
10:00 PM,41.0,19.4,42,30.22,15.0,NE,10.4,-,N/A,,Mostly Cloudy,40,2014-03-18 05:00:00
11:00 PM,35.6,19.4,52,30.23,15.0,North,3.5,-,N/A,,Mostly Cloudy,360,2014-03-18 06:00:00